Ireland West Airport Knock, Ireland

10:06 PM IST on July 24, 2017 (GMT +0100)
Connaught

Weather History for EIKN - June, 2013

Change the Weather History Date:

Friday, June 14, 2013

  Actual Average Record
Temperature  
Mean Temperature 52 °F -  
Max Temperature 56 °F - - ()
Min Temperature 47 °F - - ()
Degree Days  
Heating Degree Days 14    
Growing Degree Days 2 (Base 50)    
Moisture  
Dew Point 49 °F    
Average Humidity 92    
Maximum Humidity 100    
Minimum Humidity 82    
Precipitation  
Precipitation 0.28 in - - ()
Sea Level Pressure  
Sea Level Pressure 29.60 in    
Wind  
Wind Speed 14 mph ()    
Max Wind Speed 23 mph    
Max Gust Speed 37 mph    
Visibility 6.4 miles    
Events Rain    
T = Trace of Precipitation, MM = Missing Value Source: Averaged Metar Reports

Daily Weather History Graph

Daily Weather History Graph

Search for Another Location

Airport or City:

Trip Planner

Search our weather history database for the weather conditions in past years. The results will help you decide how hot, cold, wet, or windy it might be!

Date:

Astronomy

Jun. 14, 2013 Rise Set
Actual Time 5:03 AM IST 10:08 PM IST
Civil Twilight 4:09 AM IST 11:02 PM IST
Nautical Twilight 2:28 AM IST 12:44 AM IST
Astronomical Twilight Sun does not set Sun does not set
Moon 11:10 AM IST (6/14) 12:25 AM IST (6/14)
Length of Visible Light 18h 52m
Length of Day
17h 04m
Waxing Crescent, 28% of the Moon is Illuminated
Jun 14
Waxing Crescent
Jun 16
First Quarter
Jun 23
Full
Jun 30
Last Quarter
Jul 8
New

Hourly Weather History & Observations

Time (IST) Temp. Dew Point Humidity Pressure Visibility Wind Dir Wind Speed Gust Speed Precip Events Conditions
1:00 AM 48 °F 46 °F 91% 29.84 in - South 6.7 mph - -  
6:00 AM 50.0 °F 48.2 °F 94% 29.71 in 6.2 mi South 11.5 mph - N/A   Light Drizzle
7:00 AM 51 °F 49 °F 90% 29.73 in 9 mi SSE 13.4 mph - - Rain Light Drizzle
7:00 AM 50.0 °F 48.2 °F 94% 29.71 in 6.2 mi SSE 13.8 mph - N/A   Overcast
7:30 AM 51.8 °F 50.0 °F 94% 29.71 in 6.2 mi South 13.8 mph - N/A   Overcast
8:00 AM 51.8 °F 50.0 °F 94% 29.71 in 6.2 mi South 13.8 mph - N/A Rain Light Rain
8:30 AM 53.6 °F 50.0 °F 88% 29.68 in 6.2 mi South 16.1 mph 29.9 mph N/A Rain Light Rain
9:00 AM 53.6 °F 50.0 °F 88% 29.68 in 6.2 mi South 18.4 mph - N/A Rain Light Rain
9:30 AM 53.6 °F 50.0 °F 88% 29.68 in 6.2 mi South 16.1 mph - N/A   Overcast
10:00 AM 55.4 °F 50.0 °F 82% 29.65 in 6.2 mi SSE 16.1 mph - N/A   Mostly Cloudy
10:30 AM 55.4 °F 50.0 °F 82% 29.65 in 6.2 mi South 17.3 mph - N/A   Overcast
11:00 AM 55.4 °F 50.0 °F 82% 29.65 in 6.2 mi South 18.4 mph 29.9 mph N/A Rain Light Rain
11:30 AM 55.4 °F 50.0 °F 82% 29.62 in 6.2 mi SSE 20.7 mph 32.2 mph N/A   Mostly Cloudy
12:00 PM 55.4 °F 51.8 °F 88% 29.62 in 6.2 mi South 17.3 mph - N/A Rain Light Rain
12:30 PM 53.6 °F 51.8 °F 94% 29.59 in 6.2 mi South 19.6 mph 32.2 mph N/A   Mostly Cloudy
1:00 PM 54 °F 51 °F 84% 29.60 in 9 mi South 20.1 mph - - Rain Light Rain
1:00 PM 53.6 °F 50.0 °F 88% 29.59 in 6.2 mi South 19.6 mph - N/A Rain Light Rain
1:30 PM 53.6 °F 51.8 °F 94% 29.56 in 6.2 mi South 20.7 mph 33.4 mph N/A   Mostly Cloudy
2:00 PM 53.6 °F 48.2 °F 82% 29.56 in 6.2 mi South 23.0 mph 36.8 mph N/A Rain Light Rain
2:30 PM 50.0 °F 48.2 °F 94% 29.56 in 6.2 mi South 19.6 mph - N/A Rain Light Rain
3:00 PM 51.8 °F 50.0 °F 94% 29.56 in 6.2 mi South 18.4 mph - N/A Rain Light Rain
3:30 PM 50.0 °F 50.0 °F 100% 29.53 in 6.2 mi South 17.3 mph - N/A Rain Light Rain
4:00 PM 50.0 °F 48.2 °F 94% 29.53 in 6.2 mi SSE 20.7 mph - N/A Rain Light Rain
4:30 PM 50.0 °F 48.2 °F 94% 29.50 in 5.6 mi SSE 19.6 mph - N/A Rain Light Rain
5:00 PM 48.2 °F 48.2 °F 100% 29.50 in 5.6 mi SSE 18.4 mph 29.9 mph N/A Rain Light Rain
5:30 PM 48.2 °F 48.2 °F 100% 29.47 in 5.0 mi SSE 13.8 mph - N/A Rain Light Rain
6:00 PM 50.0 °F 48.2 °F 94% 29.44 in 5.0 mi SE 13.8 mph - N/A Rain Light Rain
6:30 PM 48.2 °F 48.2 °F 100% 29.44 in 6.2 mi South 11.5 mph - N/A Rain Light Rain
7:00 PM 48 °F 47 °F 97% 29.48 in 9 mi SSW 11.2 mph - - Rain Light Rain
7:00 PM 48.2 °F 48.2 °F 100% 29.44 in 6.2 mi SSW 11.5 mph - N/A Rain Light Rain